[[{"header":{"parameterUnit":"m.s-1","parameterCategory":1,"la1":30.2991,"la2":30.254,"lo1":-89.0895,"lo2":-89.0444,"dy":0.0017,"dx":0.0017,"nx":28,"ny":28,"refTime":"2023-11-14T09:00:00:Z","depth":0,"parameterNumber":2,"parameterNumberName":"U-component_of_WINDS"},"data":[0,0,0,0,0,0,0,0,0,0,0,0,0,0,0,0,0,0,0,0,0,0,0,0,0,0,0,0,0,0,0,0,0,0,0,0,0,0,0,0,0,0,0,0,0,0,0,0,0,0,0,0,0,0,0,0,0,0,-4.3918,-4.3919,0,-4.3929,-4.3929,-4.3929,-4.3816,-4.3813,-4.381,-4.3807,-4.3818,-4.3821,-4.3824,0,0,0,0,0,0,0,0,0,0,0,0,0,-4.38,-4.3803,-4.3918,-4.3919,-4.3919,-4.3929,-4.3929,-4.3929,-4.3816,-4.3813,-4.3809,-4.3805,-4.3817,-4.382,-4.3824,0,0,0,0,0,0,0,0,0,0,0,0,0,-4.3836,-4.3804,-4.3918,-4.3864,-4.3859,-4.3929,-4.3929,-4.3929,-4.3817,-4.3813,-4.3808,-4.3803,-4.3815,-4.382,-4.3825,-4.3948,0,0,-4.384,-4.3842,0,0,0,0,0,0,0,0,-4.3834,-4.384,-4.3872,-4.3868,-4.3862,-4.3866,-4.3891,-4.3936,-4.3818,-4.3833,-4.3807,-4.3801,-4.3838,-4.384,-4.3853,-4.3949,-4.3949,-4.384,-4.3843,-4.3845,-4.3846,0,0,0,0,0,0,0,-4.3831,-4.3839,-4.3922,-4.3872,-4.3867,-4.3838,-4.3838,-4.3899,-4.3861,-4.3831,-4.3823,-4.3826,-4.3834,-4.3848,-4.3852,-4.3949,-4.384,-4.3844,-4.3847,-4.3849,-4.4147,-4.4152,0,0,0,0,0,0,-4.3836,-4.3838,-4.3922,-4.3923,-4.3836,-4.3844,-4.3844,-4.387,-4.386,-4.3855,-4.383,-4.3821,-4.3842,-4.3847,-4.3852,-4.3996,-4.3845,-4.3849,-4.3852,-4.4142,-4.4148,-4.4154,0,0,0,0,0,0,-4.3834,-4.3845,-4.3922,-4.3878,-4.3886,-4.3851,-4.3881,-4.3872,-4.3886,-4.3859,-4.3852,-4.3851,-4.3839,-4.3845,-4.3925,-4.3995,-4.3852,-4.3856,-4.4136,-4.4144,-4.4151,-4.4286,0,0,0,0,0,0,-4.3831,-4.3845,-4.3891,-4.388,-4.3888,-4.3995,-4.3885,-4.3876,-4.3895,-4.3883,-4.3877,-4.3872,-4.3836,-4.3919,-4.393,-4.3999,-4.386,-4.413,-4.414,-4.4149,-4.4275,-4.4297,-4.4316,0,0,0,0,0,-4.3828,-4.3929,-4.3894,-4.3905,-4.3946,-4.3999,-4.4004,-4.396,-4.3901,-4.3948,-4.393,-4.3872,-4.3985,-4.3928,-4.3939,-4.4011,-4.4125,-4.4137,-4.4148,-4.4266,-4.4293,-4.4316,0,0,0,0,0,0,-4.395,-4.3926,-4.3888,-4.3989,-4.3997,-4.398,-4.4038,-4.399,-4.4015,-4.4003,-4.3947,-4.3947,-4.4037,-4.4031,-4.3968,-4.413,-4.4045,-4.4059,-4.4131,-4.4156,-4.4176,-4.4176,-4.3864,0,0,0,0,0,-4.3988,-4.4034,-4.4011,-4.4102,-4.4108,-4.4073,-4.4094,-4.4059,-4.4066,-4.4069,-4.4057,-4.4066,-4.4103,-4.4129,-4.4162,-4.4273,-4.4271,-4.4329,-4.4349,-4.4366,-4.438,-4.4439,-4.4465,-4.4191,-4.4191,-4.4191,0,0,-4.4069,-4.4061,-4.4094,-4.4126,-4.4128,-4.4177,-4.4076,-4.4132,-4.4167,-4.4077,-4.4152,-4.4144,-4.415,-4.4247,-4.4288,-4.4245,-4.4454,-4.438,-4.4394,-4.4398,-4.4453,-4.4479,-4.4502,-4.4199,-4.4197,-4.4196,0,0,-4.424,-4.4239,-4.4315,-4.4319,-4.4324,-4.43,-4.4318,-4.4309,-4.43,-4.4375,-4.4308,-4.435,-4.4415,-4.4422,-4.4434,-4.4609,-4.4557,-4.4621,-4.4728,-4.4787,-4.4809,-4.4828,-4.4891,-4.4914,-4.4634,-4.4634,-4.4634,0,-4.4339,-4.441,-4.436,-4.442,-4.4437,-4.4357,-4.4434,-4.4441,-4.4457,-4.447,-4.4421,-4.4502,-4.45,-4.4598,-4.464,-4.4652,-4.4672,-4.4622,-4.481,-4.4828,-4.4845,-4.4905,-4.4929,-4.4642,-4.4641,-4.464,-4.464,0,-4.4532,-4.4582,-4.4643,-4.4661,-4.4684,-4.4752,-4.4713,-4.4742,-4.4706,-4.4687,-4.4764,-4.4758,-4.4789,-4.4809,-4.4774,-4.4903,-4.4876,-4.4819,-4.4733,-4.488,-4.4935,-4.4958,-4.4653,-4.4651,-4.4648,-4.4646,0,0,-4.4782,-4.4771,-4.4794,-4.4801,-4.4801,-4.4839,-4.4903,-4.4933,-4.496,-4.4973,-4.5027,-4.5084,-4.5032,-4.5046,-4.501,-4.5062,-4.5202,-4.4998,-4.4998,-4.5038,-4.5344,-4.5388,-4.5416,-4.5166,-4.5171,-4.5174,-4.5344,0,-4.495,-4.506,-4.5017,-4.5131,-4.5177,-4.5102,-4.5159,-4.5165,-4.5149,-4.5185,-4.5167,-4.5209,-4.5136,-4.5144,-4.5191,-4.5175,-4.5263,-4.5161,-4.5217,-4.5219,-4.5219,-4.5444,-4.549,-4.5652,-4.5365,-4.5369,-4.5372,0,-4.5161,-4.5183,-4.5302,-4.5294,-4.5312,-4.5363,-4.5388,-4.5423,-4.5429,-4.5413,-4.5429,-4.5382,-4.5446,-4.5358,-4.5445,-4.5377,-4.5397,-4.5392,-4.5397,-4.5402,-4.5306,-4.5456,-4.5702,-4.5727,-4.5405,-4.5402,-4.54,0,-4.5333,-4.5392,-4.5471,-4.548,-4.5472,-4.551,-4.5509,-4.5509,-4.553,-4.5551,-4.5565,-4.5593,-4.5609,-4.5632,-4.5594,-4.5534,-4.5687,-4.5596,-4.5677,-4.5678,-4.5714,-4.5712,-4.5967,-4.5724,-4.5724,-4.5723,-4.5723,0,-4.5526,-4.5602,-4.5549,-4.5598,-4.568,-4.563,-4.5714,-4.5704,-4.5705,-4.575,-4.5686,-4.5731,-4.5677,-4.5717,-4.5687,-4.5764,-4.5772,-4.5762,-4.5753,-4.5768,-4.577,-4.5782,-4.577,-4.573,-4.5728,-4.5727,-4.5726,0,-4.5733,-4.57,-4.5781,-4.5767,-4.5766,-4.5828,-4.5815,-4.586,-4.5839,-4.5898,-4.5909,-4.5876,-4.5919,-4.5883,-4.5925,-4.5905,-4.6008,-4.5982,-4.6006,-4.6,-4.6083,-4.6077,-4.6356,-4.6391,-4.6124,-4.6127,-4.6129,0,-4.5859,-4.5916,-4.5908,-4.5934,-4.5937,-4.598,-4.6001,-4.5953,-4.5978,-4.5988,-4.6032,-4.6069,-4.6097,-4.6169,-4.6149,-4.6181,-4.6157,-4.6253,-4.6161,-4.6175,-4.616,-4.6158,-4.6164,-4.6272,-4.6275,-4.6278,-4.628,0,-4.6087,-4.6068,-4.6101,-4.6129,-4.6157,-4.6176,-4.6191,-4.6216,-4.6167,-4.6198,-4.6241,-4.6263,-4.6305,-4.6344,-4.6369,-4.6367,-4.6316,-4.6308,-4.6329,-4.6346,-4.6358,-4.6354,-4.6059,-4.6303,-4.63,-4.6299,-4.6297,-4.6296,-4.6258,-4.6306,-4.6308,-4.6347,-4.6353,-4.6368,-4.641,-4.6394,-4.6429,-4.646,-4.643,-4.6482,-4.6486,-4.6514,-4.6519,-4.656,-4.652,-4.6549,-4.6557,-4.6566,-4.6578,-4.635,-4.6564,-4.6563,-4.6562,-4.6562,-4.6561,0,-4.6484,-4.6482,-4.6518,-4.6541,-4.6572,-4.6521,-4.6534,-4.6564,-4.6611,-4.6619,-4.6647,-4.6697,-4.6734,-4.6717,-4.6749,-4.6785,-4.6763,-4.6796,-4.6793,-4.6794,-4.6611,-4.6591,-4.6813,-4.6813,-4.6813,-4.6813,-4.6813,-4.6813,-4.6606,-4.6683,-4.6665,-4.6745,-4.6741,-4.6793,-4.6805,-4.6819,-4.6825,-4.6884,-4.6914,-4.6903,-4.6901,-4.6932,-4.6964,-4.6958,-4.6974,-4.7015,-4.7001,-4.6831,-4.6807,-4.6783,-4.6764,-4.7019,-4.7019,-4.7181,-4.7182,-4.7183]},{"header":{"parameterUnit":"m.s-1","parameterCategory":1,"la1":30.2991,"la2":30.254,"lo1":-89.0895,"lo2":-89.0444,"dy":0.0017,"dx":0.0017,"nx":28,"ny":28,"refTime":"2023-11-14T09:00:00:Z","depth":0,"parameterNumber":3,"parameterNumberName":"V-component_of_WINDS"},"data":[0,0,0,0,0,0,0,0,0,0,0,0,0,0,0,0,0,0,0,0,0,0,0,0,0,0,0,0,0,0,0,0,0,0,0,0,0,0,0,0,0,0,0,0,0,0,0,0,0,0,0,0,0,0,0,0,0,0,-4.2316,-4.2316,0,-4.2329,-4.2329,-4.2329,-4.2263,-4.2261,-4.2259,-4.2257,-4.2269,-4.2271,-4.2274,0,0,0,0,0,0,0,0,0,0,0,0,0,-4.223,-4.2232,-4.2316,-4.2316,-4.2316,-4.2329,-4.2329,-4.233,-4.2263,-4.2261,-4.2258,-4.2256,-4.2269,-4.2271,-4.2274,0,0,0,0,0,0,0,0,0,0,0,0,0,-4.2258,-4.2233,-4.2316,-4.2284,-4.2282,-4.2329,-4.2329,-4.233,-4.2264,-4.2261,-4.2258,-4.2255,-4.2268,-4.2271,-4.2274,-4.2352,0,0,-4.2284,-4.2285,0,0,0,0,0,0,0,0,-4.2256,-4.2261,-4.2289,-4.2287,-4.2284,-4.2291,-4.2304,-4.2337,-4.2264,-4.2271,-4.2257,-4.2254,-4.2279,-4.2281,-4.229,-4.2352,-4.2353,-4.2284,-4.2286,-4.2287,-4.2288,0,0,0,0,0,0,0,-4.2254,-4.226,-4.2321,-4.2289,-4.2286,-4.2269,-4.227,-4.231,-4.2291,-4.227,-4.2265,-4.2268,-4.2277,-4.2287,-4.229,-4.2353,-4.2284,-4.2287,-4.2289,-4.229,-4.2478,-4.2481,0,0,0,0,0,0,-4.2257,-4.2259,-4.232,-4.2321,-4.2263,-4.2273,-4.2274,-4.2292,-4.229,-4.2287,-4.227,-4.2264,-4.2283,-4.2286,-4.229,-4.238,-4.2287,-4.229,-4.2292,-4.2475,-4.2479,-4.2482,0,0,0,0,0,0,-4.2255,-4.2263,-4.232,-4.2289,-4.2295,-4.2277,-4.2298,-4.2294,-4.2303,-4.229,-4.2286,-4.2284,-4.2281,-4.2285,-4.2336,-4.2379,-4.2292,-4.2295,-4.2471,-4.2476,-4.248,-4.2561,0,0,0,0,0,0,-4.2253,-4.2263,-4.2293,-4.229,-4.2297,-4.2367,-4.2301,-4.2296,-4.2309,-4.2302,-4.2302,-4.2299,-4.2279,-4.2332,-4.234,-4.2382,-4.2297,-4.2467,-4.2473,-4.2479,-4.2554,-4.2567,-4.2579,0,0,0,0,0,-4.225,-4.2315,-4.2295,-4.2302,-4.2334,-4.237,-4.2374,-4.2349,-4.2313,-4.2343,-4.2334,-4.2299,-4.2373,-4.2338,-4.2346,-4.239,-4.2465,-4.2472,-4.2478,-4.2549,-4.2565,-4.2579,0,0,0,0,0,0,-4.2323,-4.2314,-4.2291,-4.2357,-4.2365,-4.2359,-4.2395,-4.2367,-4.2385,-4.2378,-4.2346,-4.2346,-4.2403,-4.2401,-4.2362,-4.2464,-4.2413,-4.2421,-4.2463,-4.2478,-4.2491,-4.249,-4.23,0,0,0,0,0,-4.2346,-4.2377,-4.2367,-4.2426,-4.2431,-4.2413,-4.2428,-4.2408,-4.2415,-4.2417,-4.2412,-4.242,-4.2444,-4.2461,-4.2483,-4.2553,-4.2552,-4.2587,-4.26,-4.261,-4.2618,-4.2654,-4.267,-4.2505,-4.2505,-4.2505,0,0,-4.2395,-4.2394,-4.2416,-4.2441,-4.2444,-4.2476,-4.2416,-4.2452,-4.2475,-4.2423,-4.2471,-4.2467,-4.2473,-4.2534,-4.2561,-4.2535,-4.2663,-4.2619,-4.2627,-4.263,-4.2663,-4.2679,-4.2692,-4.2509,-4.2509,-4.2508,0,0,-4.2501,-4.2504,-4.2553,-4.2557,-4.2564,-4.2551,-4.2563,-4.2561,-4.2557,-4.2604,-4.2565,-4.2592,-4.2635,-4.2641,-4.2649,-4.2756,-4.2725,-4.2764,-4.2829,-4.2865,-4.2878,-4.2889,-4.2927,-4.2941,-4.2772,-4.2772,-4.2773,0,-4.2561,-4.2608,-4.2581,-4.262,-4.2632,-4.2586,-4.2634,-4.264,-4.2654,-4.2662,-4.2633,-4.2686,-4.2687,-4.2748,-4.2774,-4.2783,-4.2794,-4.2764,-4.2878,-4.2889,-4.2899,-4.2935,-4.2949,-4.2777,-4.2777,-4.2776,-4.2776,0,-4.2681,-4.2715,-4.2753,-4.2767,-4.2783,-4.2827,-4.2806,-4.2825,-4.2804,-4.2794,-4.2842,-4.2842,-4.2862,-4.2875,-4.2855,-4.2934,-4.2917,-4.2884,-4.2831,-4.292,-4.2953,-4.2966,-4.2784,-4.2782,-4.2781,-4.278,0,0,-4.2834,-4.2832,-4.2846,-4.2852,-4.2855,-4.288,-4.2921,-4.2941,-4.2958,-4.2969,-4.3002,-4.3039,-4.3008,-4.3018,-4.2998,-4.3029,-4.3113,-4.2991,-4.2991,-4.3014,-4.3199,-4.3224,-4.324,-4.3092,-4.3095,-4.3097,-4.3198,0,-4.2937,-4.3007,-4.2984,-4.3055,-4.3085,-4.3041,-4.3077,-4.3082,-4.3074,-4.3097,-4.3087,-4.3114,-4.3071,-4.3077,-4.3106,-4.3097,-4.315,-4.3089,-4.3122,-4.3124,-4.3122,-4.3257,-4.3284,-4.338,-4.3211,-4.3213,-4.3215,0,-4.3067,-4.3082,-4.3157,-4.3154,-4.3166,-4.3199,-4.3215,-4.3238,-4.3243,-4.3235,-4.3245,-4.3218,-4.3257,-4.3205,-4.3258,-4.3218,-4.323,-4.3227,-4.323,-4.3232,-4.3175,-4.3263,-4.341,-4.3425,-4.3235,-4.3233,-4.3232,0,-4.317,-4.3209,-4.3259,-4.3265,-4.3263,-4.3287,-4.3288,-4.329,-4.3303,-4.3317,-4.3326,-4.3344,-4.3355,-4.3369,-4.3347,-4.3311,-4.3404,-4.335,-4.3397,-4.3398,-4.3419,-4.3418,-4.357,-4.3427,-4.3427,-4.3427,-4.3426,0,-4.3287,-4.3334,-4.3305,-4.3336,-4.3387,-4.3359,-4.341,-4.3405,-4.3407,-4.3436,-4.3399,-4.3426,-4.3396,-4.342,-4.3403,-4.3449,-4.3454,-4.3448,-4.3443,-4.3451,-4.3452,-4.3459,-4.3451,-4.343,-4.343,-4.3429,-4.3428,0,-4.3411,-4.3393,-4.3444,-4.3439,-4.3438,-4.3476,-4.3471,-4.3498,-4.3487,-4.3523,-4.353,-4.3512,-4.3538,-4.3518,-4.3544,-4.3533,-4.3594,-4.3579,-4.3592,-4.3588,-4.3637,-4.3633,-4.3799,-4.3819,-4.3663,-4.3665,-4.3666,0,-4.3487,-4.3523,-4.352,-4.3537,-4.354,-4.3566,-4.358,-4.3553,-4.3569,-4.3577,-4.3603,-4.3626,-4.3644,-4.3688,-4.3677,-4.3696,-4.3682,-4.3739,-4.3685,-4.3692,-4.3682,-4.3681,-4.3684,-4.375,-4.3751,-4.3753,-4.3754,0,-4.3624,-4.3614,-4.3635,-4.3653,-4.367,-4.3683,-4.3693,-4.3709,-4.3681,-4.3701,-4.3727,-4.3741,-4.3767,-4.379,-4.3806,-4.3805,-4.3775,-4.3771,-4.3783,-4.3792,-4.3798,-4.3795,-4.3622,-4.3768,-4.3766,-4.3765,-4.3765,-4.3764,-4.3726,-4.3755,-4.3758,-4.3783,-4.3787,-4.3797,-4.3823,-4.3814,-4.3836,-4.3856,-4.3838,-4.387,-4.3873,-4.3891,-4.3894,-4.3918,-4.3895,-4.3912,-4.3917,-4.3922,-4.3928,-4.3794,-4.3921,-4.3921,-4.392,-4.392,-4.392,0,-4.3861,-4.386,-4.3883,-4.3898,-4.3918,-4.3888,-4.3897,-4.3915,-4.3944,-4.3949,-4.3967,-4.3997,-4.4019,-4.401,-4.4029,-4.405,-4.4037,-4.4056,-4.4054,-4.4055,-4.3948,-4.3936,-4.4067,-4.4067,-4.4067,-4.4067,-4.4067,-4.4067,-4.3933,-4.3981,-4.397,-4.4019,-4.4018,-4.4049,-4.4057,-4.4065,-4.407,-4.4105,-4.4124,-4.4117,-4.4117,-4.4135,-4.4154,-4.4151,-4.416,-4.4184,-4.4176,-4.4077,-4.4062,-4.4048,-4.4037,-4.4186,-4.4187,-4.428,-4.4281,-4.4282]}]]